W3JBS-2 Weather Reports


time (UTC)temp
F
wind
direction
speed
knots
gust
knots
rain 1hr
in
rain 24hr
in
rain mn
in
humidity
%
barometer
mb
20260504130700 58 236 3.5 8.7 0.00 0.00 0.00 62 1014.1
20260504110659 47 0 0.0 1.7 0.00 0.00 0.00 78 1014.5
20260504080700 45 0 0.0 0.9 0.00 0.00 0.00 68 1014.5
20260504050659 46 0 0.0 1.7 0.00 0.00 0.00 56 1014.5
20260504045159 47 0 0.0 0.0 0.00 0.00 0.00 54 1014.5
20260504043659 47 0 0.0 0.0 0.00 0.00 0.00 54 1014.5
20260504042159 47 0 0.0 2.6 0.00 0.00 0.00 55 1014.3
20260504040700 47 0 0.0 0.0 0.00 0.00 0.00 56 1014.2
20260504035200 47 0 0.0 0.0 0.00 0.00 0.00 54 1014.1
20260504033659 46 0 0.0 0.0 0.00 0.00 0.00 55 1014.1
20260504032159 46 0 0.0 0.0 0.00 0.00 0.00 57 1014.0
20260504030659 47 0 0.0 0.0 0.00 0.00 0.00 56 1013.9
20260504025159 47 0 0.0 0.0 0.00 0.00 0.00 54 1014.0
20260504023700 47 0 0.0 0.0 0.00 0.00 0.00 53 1014.0
20260504022200 48 0 0.0 0.0 0.00 0.00 0.00 52 1014.0
20260504020659 48 0 0.0 0.0 0.00 0.00 0.00 53 1014.0
20260504015159 48 0 0.0 0.0 0.00 0.00 0.00 53 1013.9
20260504013659 49 0 0.0 0.0 0.00 0.00 0.00 51 1013.9
20260504012159 50 0 0.0 0.0 0.00 0.00 0.00 51 1013.7
20260504010659 51 0 0.0 0.0 0.00 0.00 0.00 48 1013.5
20260504005159 52 0 0.0 0.0 0.00 0.00 0.00 44 1013.3
20260504003659 53 0 0.0 0.0 0.00 0.00 0.00 43 1013.2
20260504002159 54 0 0.0 0.0 0.00 0.00 0.00 41 1012.8
20260503235159 56 0 0.0 1.7 0.00 0.00 0.00 39 1012.7
20260503233659 57 278 1.7 6.1 0.00 0.00 0.00 38 1012.4
20260503232159 57 298 2.6 9.6 0.00 0.00 0.00 38 1012.4
20260503230659 58 278 1.7 8.7 0.00 0.00 0.00 37 1012.3
20260503225159 58 0 0.0 10.4 0.00 0.00 0.00 36 1012.2
20260503223659 59 274 1.7 12.2 0.00 0.00 0.00 36 1012.2
20260503222159 59 307 5.2 11.3 0.00 0.00 0.00 36 1012.2
20260503220659 59 323 7.8 12.2 0.00 0.00 0.00 36 1012.3
20260503215158 59 280 4.3 13.0 0.00 0.00 0.00 35 1012.3
20260503213659 59 273 6.1 14.8 0.00 0.00 0.00 36 1012.3
20260503212159 59 324 10.4 20.0 0.00 0.00 0.00 35 1012.2
20260503210659 59 321 5.2 20.9 0.00 0.00 0.00 34 1012.2
20260503205159 60 326 7.0 14.8 0.00 0.00 0.00 35 1012.2
20260503203659 59 302 8.7 18.2 0.00 0.00 0.00 37 1012.5
20260503202159 58 310 7.8 13.9 0.00 0.00 0.00 37 1012.6
20260503200659 58 312 7.8 16.5 0.00 0.00 0.00 37 1012.7
20260503195159 58 280 10.4 16.5 0.00 0.00 0.00 38 1012.8
20260503193659 57 329 11.3 18.2 0.00 0.00 0.00 37 1012.8
20260503192159 56 282 3.5 8.7 0.00 0.00 0.00 38 1013.0
20260503190659 56 297 7.0 14.8 0.00 0.00 0.00 37 1013.1
20260503185159 57 287 9.6 15.6 0.00 0.00 0.00 37 1013.1
20260503183659 56 264 9.6 14.8 0.00 0.00 0.00 38 1013.3
20260503182159 57 275 3.5 13.0 0.00 0.00 0.00 39 1013.4
20260503180700 56 278 3.5 9.6 0.00 0.00 0.00 42 1013.5
20260503175159 57 282 3.5 12.2 0.00 0.00 0.00 41 1013.5
20260503173659 55 254 8.7 18.2 0.00 0.00 0.00 39 1013.6
20260503172159 54 251 6.1 15.6 0.00 0.00 0.00 41 1013.7
20260503170659 54 266 1.7 13.9 0.00 0.00 0.00 40 1013.8
20260503150659 49 308 7.0 15.6 0.00 0.00 0.00 47 1014.5